Weather History for Eufaula, AL

Change the Weather History Date:

Tuesday, October 23, 2012

  Actual Average (KLSF) Record (KLSF)
Temperature  
Mean Temperature 64 °F -  
Max Temperature 82 °F 74 °F 87 °F (2007)
Min Temperature 46 °F 48 °F 35 °F (1997)
Degree Days  
Heating Degree Days 1    
Growing Degree Days 14 (Base 50)    
Moisture  
Dew Point 53 °F    
Average Humidity 76    
Maximum Humidity 100    
Minimum Humidity 41    
Precipitation  
Precipitation 0.01 in - - ()
Sea Level Pressure  
Sea Level Pressure 30.11 in    
Wind  
Wind Speed 1 mph (East)    
Max Wind Speed 5 mph    
Max Gust Speed -    
Visibility 9 miles    
Events Rain    
Averages and records for this station are not official NWS values.
T = Trace of Precipitation, MM = Missing Value Source: NWS Daily Summary

Daily Weather History Graph

Daily Weather History Graph

Search for Another Location

Airport:

Trip Planner

Search our weather history database for the weather conditions in past years. The results will help you decide how hot, cold, wet, or windy it might be!

Date:

Astronomy

Oct. 23, 2012 Rise Set
Actual Time 6:50 AM CDT 5:58 PM CDT
Civil Twilight 6:25 AM CDT 6:23 PM CDT
Nautical Twilight 5:56 AM CDT 6:52 PM CDT
Astronomical Twilight 5:28 AM CDT 7:20 PM CDT
Moon 2:23 PM CDT (10/23) 1:02 AM CDT (10/23)
Length of Visible Light 11h 58m
Length of Day
11h 08m
Waxing Gibbous, 67% of the Moon is Illuminated
Oct 23
Waxing Gibbous
Oct 29
Full
Nov 6
Last Quarter
Nov 13
New
Nov 20
First Quarter

Hourly Weather History & Observations

Time (CDT) Temp. Heat Index Dew Point Humidity Pressure Visibility Wind Dir Wind Speed Gust Speed Precip Events Conditions
12:58 AM 51.1 °F - 48.9 °F 92% 30.12 in 10.0 mi Calm Calm - N/A   Clear
1:58 AM 51.1 °F - 48.9 °F 92% 30.11 in 10.0 mi Calm Calm - 0.01 in   Clear
2:58 AM 51.1 °F - 48.9 °F 92% 30.10 in 10.0 mi Calm Calm - N/A   Clear
3:58 AM 51.1 °F - 48.9 °F 92% 30.10 in 10.0 mi Calm Calm - N/A   Clear
4:58 AM 50.0 °F - 48.0 °F 93% 30.11 in 10.0 mi Calm Calm - N/A   Clear
5:58 AM 48.9 °F - 46.9 °F 93% 30.13 in 10.0 mi Calm Calm - N/A   Clear
6:49 AM 48.2 °F - 46.4 °F 93% 30.15 in 1.5 mi Calm Calm - N/A   Clear
6:58 AM 46.9 °F - 46.0 °F 97% 30.14 in 2.5 mi Calm Calm - N/A   Clear
7:02 AM 46.4 °F - 46.4 °F 100% 30.15 in 6.0 mi Calm Calm - N/A   Clear
8:58 AM 63.0 °F - 53.1 °F 70% 30.17 in 10.0 mi Calm Calm - 0.00 in Rain Light Rain
9:58 AM 69.1 °F - 54.0 °F 58% 30.17 in 10.0 mi East 4.6 mph - N/A   Clear
10:58 AM 73.9 °F - 54.0 °F 50% 30.16 in 10.0 mi Variable 4.6 mph - N/A   Clear
11:58 AM 78.1 °F - 54.0 °F 43% 30.13 in 10.0 mi ENE 4.6 mph - N/A   Clear
12:58 PM 81.0 °F 80.8 °F 55.9 °F 42% 30.09 in 10.0 mi Variable 3.5 mph - N/A   Clear
1:58 PM 82.0 °F 81.6 °F 55.9 °F 41% 30.07 in 10.0 mi Variable 3.5 mph - N/A   Clear
2:58 PM 82.0 °F 81.6 °F 55.9 °F 41% 30.06 in 10.0 mi Calm Calm - N/A   Clear
3:58 PM 82.0 °F 81.6 °F 55.9 °F 41% 30.06 in 10.0 mi ESE 3.5 mph - N/A   Clear
4:58 PM 82.0 °F 81.6 °F 55.9 °F 41% 30.05 in 10.0 mi Calm Calm - N/A   Clear
5:58 PM 69.1 °F - 62.1 °F 78% 30.06 in 10.0 mi Calm Calm - N/A   Clear
6:58 PM 64.0 °F - 60.1 °F 87% 30.08 in 10.0 mi Calm Calm - N/A   Clear
7:58 PM 61.0 °F - 57.9 °F 90% 30.09 in 10.0 mi Calm Calm - N/A   Clear
8:58 PM 59.0 °F - 57.0 °F 93% 30.10 in 10.0 mi Calm Calm - N/A   Clear
9:58 PM 57.9 °F - 55.0 °F 90% 30.10 in 10.0 mi Calm Calm - N/A   Clear
10:58 PM 57.0 °F - 55.0 °F 93% 30.09 in 10.0 mi Calm Calm - N/A   Clear
11:58 PM 55.9 °F - 55.0 °F 97% 30.09 in 10.0 mi Calm Calm - N/A   Clear